Weather History for Columbus AFB, MS

Change the Weather History Date:

Tuesday, December 3, 2013

  Actual Average Record
Temperature  
Mean Temperature 56 °F -  
Max Temperature 69 °F 58 °F 74 °F (2012)
Min Temperature 44 °F 38 °F 26 °F (2000)
Degree Days  
Heating Degree Days 8    
Growing Degree Days 6 (Base 50)    
Moisture  
Dew Point 54 °F    
Average Humidity 96    
Maximum Humidity 100    
Minimum Humidity 68    
Precipitation  
Precipitation 0.00 in - - ()
Sea Level Pressure  
Sea Level Pressure 29.76 in    
Wind  
Wind Speed 3 mph (SSE)    
Max Wind Speed 12 mph    
Max Gust Speed -    
Visibility 5 miles    
Events Fog    
Averages and records for this station are not official NWS values.
T = Trace of Precipitation, MM = Missing Value Source: NWS Daily Summary

Daily Weather History Graph

Daily Weather History Graph

Search for Another Location

Airport:

Trip Planner

Search our weather history database for the weather conditions in past years. The results will help you decide how hot, cold, wet, or windy it might be!

Date:

Astronomy

Dec. 03, 2013 Rise Set
Actual Time 6:42 AM CST 4:45 PM CST
Civil Twilight 6:14 AM CST 5:12 PM CST
Nautical Twilight 5:43 AM CST 5:43 PM CST
Astronomical Twilight 5:13 AM CST 6:13 PM CST
Moon 7:12 AM CST (12/3) 5:47 PM CST (12/3)
Length of Visible Light 10h 57m
Length of Day
10h 03m
New Moon, 1% of the Moon is Illuminated
Dec 3
New Moon
Dec 9
First Quarter
Dec 17
Full
Dec 25
Last Quarter
Jan 1
New

Hourly Weather History & Observations

Time (CST) Temp. Dew Point Humidity Pressure Visibility Wind Dir Wind Speed Gust Speed Precip Events Conditions
12:43 AM 46.4 °F 46.4 °F 100% 29.76 in 0.5 mi Calm Calm - N/A Fog Fog
12:48 AM 46.4 °F 46.4 °F 100% 29.76 in 0.5 mi Calm Calm - N/A Fog Fog
12:53 AM 46.4 °F 46.4 °F 100% 29.76 in 0.5 mi Calm Calm - N/A Fog Fog
12:58 AM 47.3 °F 47.3 °F 100% 29.78 in 0.5 mi Calm Calm - N/A Fog Fog
1:08 AM 48.2 °F 48.2 °F 100% 29.76 in 0.8 mi Calm Calm - N/A   Scattered Clouds
1:13 AM 48.2 °F 48.2 °F 100% 29.76 in 0.8 mi Calm Calm - N/A   Scattered Clouds
1:23 AM 48.2 °F 48.2 °F 100% 29.76 in 0.5 mi South 2.3 mph - N/A Fog Fog
1:33 AM 46.4 °F 46.4 °F 100% 29.76 in 0.5 mi South 2.3 mph - N/A Fog Fog
1:53 AM 46.4 °F 46.4 °F 100% 29.76 in 0.2 mi Calm Calm - N/A Fog Fog
1:58 AM 46.0 °F 46.0 °F 100% 29.77 in 0.2 mi North 2.3 mph - N/A Fog Fog
2:28 AM 46.4 °F 46.4 °F 100% 29.76 in 0.5 mi Calm Calm - N/A Fog Fog
2:33 AM 46.4 °F 46.4 °F 100% 29.76 in 0.2 mi Calm Calm - N/A Fog Fog
2:43 AM 46.4 °F 46.4 °F 100% 29.76 in 0.5 mi Calm Calm - N/A Fog Fog
2:48 AM 46.4 °F 46.4 °F 100% 29.76 in 0.2 mi SSE 2.3 mph - N/A Fog Fog
2:53 AM 46.4 °F 46.4 °F 100% 29.76 in 0.5 mi Calm Calm - N/A Fog Fog
2:58 AM 46.4 °F 46.4 °F 100% 29.77 in 0.5 mi ESE 2.3 mph - N/A Fog Fog
3:08 AM 46.4 °F 46.4 °F 100% 29.76 in 0.2 mi Calm Calm - N/A Fog Fog
3:33 AM 46.4 °F 46.4 °F 100% 29.76 in 0.5 mi Calm Calm - N/A Fog Fog
3:53 AM 44.6 °F 44.6 °F 100% 29.75 in 0.2 mi North 2.3 mph - N/A Fog Fog
3:55 AM 44.6 °F 44.6 °F 100% 29.75 in 0.2 mi Calm Calm - N/A Fog Fog
3:58 AM 44.6 °F 44.6 °F 100% 29.76 in 0.2 mi Calm Calm - N/A Fog Fog
4:03 AM 44.6 °F 44.6 °F 100% 29.75 in 0.5 mi North 1.2 mph - N/A Fog Fog
4:08 AM 44.6 °F 44.6 °F 100% 29.75 in 0.8 mi Calm Calm - N/A   Mostly Cloudy
4:13 AM 46.4 °F 46.4 °F 100% 29.74 in 0.8 mi Calm Calm - N/A   Mostly Cloudy
4:18 AM 46.4 °F 46.4 °F 100% 29.75 in 1.0 mi South 2.3 mph - N/A   Mostly Cloudy
4:23 AM 46.4 °F 46.4 °F 100% 29.75 in 1.2 mi WNW 1.2 mph - N/A   Overcast
4:33 AM 46.4 °F 46.4 °F 100% 29.75 in 2.0 mi Calm Calm - N/A   Overcast
4:38 AM 48.2 °F 48.2 °F 100% 29.75 in 4.0 mi Calm Calm - N/A   Overcast
4:43 AM 48.2 °F 48.2 °F 100% 29.75 in 5.0 mi SSW 1.2 mph - N/A   Overcast
4:53 AM 48.2 °F 48.2 °F 100% 29.75 in 7.0 mi Calm Calm - N/A   Overcast
4:58 AM 47.8 °F 47.8 °F 100% 29.77 in 7.0 mi Calm Calm - N/A   Overcast
5:08 AM 48.2 °F 48.2 °F 100% 29.75 in 7.0 mi Calm Calm - N/A   Overcast
5:23 AM 48.2 °F 48.2 °F 100% 29.75 in 2.5 mi Calm Calm - N/A   Overcast
5:28 AM 48.2 °F 48.2 °F 100% 29.75 in 1.0 mi South 2.3 mph - N/A   Overcast
5:33 AM 48.2 °F 48.2 °F 100% 29.75 in 0.5 mi South 3.5 mph - N/A Fog Fog
5:38 AM 50.0 °F 50.0 °F 100% 29.75 in 0.2 mi SSE 3.5 mph - N/A Fog Fog
5:58 AM 50.9 °F 50.9 °F 100% 29.76 in 0.2 mi SE 3.5 mph - N/A Fog Fog
6:58 AM 52.0 °F 52.0 °F 100% 29.78 in 0.2 mi SSE 2.3 mph - N/A Fog Fog
7:58 AM 53.1 °F 53.1 °F 100% 29.80 in 0.2 mi Calm Calm - N/A Fog Fog
8:28 AM 55.4 °F 55.4 °F 100% 29.79 in 0.5 mi SSE 4.6 mph - N/A Fog Fog
8:33 AM 55.4 °F 55.4 °F 100% 29.79 in 0.5 mi South 4.6 mph - N/A Fog Fog
8:43 AM 55.4 °F 55.4 °F 100% 29.79 in 0.8 mi SSE 4.6 mph - N/A   Overcast
8:48 AM 55.4 °F 55.4 °F 100% 29.79 in 0.8 mi SSE 5.8 mph - N/A   Overcast
8:53 AM 55.4 °F 55.4 °F 100% 29.79 in 1.0 mi South 5.8 mph - N/A   Overcast
8:58 AM 55.4 °F 55.4 °F 100% 29.80 in 1.0 mi SSE 4.6 mph - N/A   Overcast
9:03 AM 55.4 °F 55.4 °F 100% 29.79 in 1.2 mi South 5.8 mph - N/A   Overcast
9:08 AM 55.4 °F 55.4 °F 100% 29.80 in 1.8 mi South 4.6 mph - N/A   Overcast
9:13 AM 57.2 °F 57.2 °F 100% 29.80 in 2.0 mi SSE 3.5 mph - N/A   Overcast
9:58 AM 57.6 °F 57.6 °F 100% 29.81 in 2.5 mi SE 3.5 mph - N/A   Overcast
10:08 AM 59.0 °F 59.0 °F 100% 29.80 in 3.0 mi SSE 4.6 mph - N/A   Overcast
10:13 AM 59.0 °F 59.0 °F 100% 29.80 in 4.0 mi SSE 4.6 mph - N/A   Overcast
10:27 AM 59.0 °F 59.0 °F 100% 29.80 in 4.0 mi South 4.6 mph - N/A   Overcast
10:28 AM 59.0 °F 59.0 °F 100% 29.80 in 5.0 mi South 4.6 mph - N/A   Overcast
10:58 AM 60.6 °F 60.6 °F 100% 29.80 in 8.0 mi SSW 8.1 mph - N/A   Overcast
11:18 AM 60.8 °F 60.8 °F 100% 29.78 in 10.0 mi South 9.2 mph - N/A   Overcast
11:38 AM 62.6 °F 62.6 °F 100% 29.77 in 10.0 mi South 8.1 mph - N/A   Overcast
11:53 AM 64.4 °F 60.8 °F 88% 29.77 in 10.0 mi South 5.8 mph - N/A   Overcast
11:58 AM 63.9 °F 60.3 °F 88% 29.77 in 10.0 mi SSE 6.9 mph - N/A   Mostly Cloudy
12:03 PM 64.4 °F 60.8 °F 88% 29.76 in 10.0 mi SSE 6.9 mph - N/A   Mostly Cloudy
12:08 PM 64.4 °F 60.8 °F 88% 29.76 in 10.0 mi SSE 6.9 mph - N/A   Mostly Cloudy
12:13 PM 64.4 °F 59.0 °F 83% 29.76 in 10.0 mi SSE 6.9 mph - N/A   Mostly Cloudy
12:20 PM 64.4 °F 59.0 °F 83% 29.75 in 10.0 mi South 6.9 mph - N/A   Mostly Cloudy
12:48 PM 66.2 °F 59.0 °F 78% 29.74 in 10.0 mi South 5.8 mph - N/A   Mostly Cloudy
12:58 PM 65.8 °F 59.5 °F 80% 29.74 in 10.0 mi SSE 6.9 mph - N/A   Mostly Cloudy
1:28 PM 66.2 °F 59.0 °F 78% 29.73 in 10.0 mi South 9.2 mph - N/A   Mostly Cloudy
1:58 PM 68.0 °F 59.2 °F 73% 29.74 in 10.0 mi SSW 8.1 mph - N/A   Mostly Cloudy
2:13 PM 69.8 °F 59.0 °F 68% 29.72 in 10.0 mi SSW 6.9 mph - N/A   Mostly Cloudy
2:31 PM 69.8 °F 59.0 °F 68% 29.71 in 10.0 mi South 10.4 mph - N/A   Scattered Clouds
2:38 PM 69.8 °F 59.0 °F 68% 29.71 in 10.0 mi South 9.2 mph - N/A   Mostly Cloudy
2:43 PM 69.8 °F 59.0 °F 68% 29.71 in 10.0 mi South 11.5 mph - N/A   Scattered Clouds
2:58 PM 69.6 °F 59.0 °F 69% 29.71 in 10.0 mi South 6.9 mph - N/A   Partly Cloudy
3:13 PM 68.0 °F 59.0 °F 73% 29.70 in 4.0 mi SSE 9.2 mph - N/A   Haze
7:53 PM 59.0 °F 59.0 °F 100% 29.75 in 9.0 mi SE 5.8 mph - N/A   Mostly Cloudy
7:58 PM 59.2 °F 59.2 °F 100% 29.76 in 9.0 mi SE 5.8 mph - N/A   Mostly Cloudy
8:48 PM 60.8 °F 60.8 °F 100% 29.76 in 10.0 mi SSE 8.1 mph - N/A   Scattered Clouds
8:58 PM 61.2 °F 61.2 °F 100% 29.77 in 10.0 mi South 8.1 mph - N/A   Partly Cloudy
9:23 PM 62.6 °F 62.6 °F 100% 29.77 in 10.0 mi SSE 8.1 mph - N/A   Mostly Cloudy
9:33 PM 62.6 °F 62.6 °F 100% 29.77 in 10.0 mi SSE 8.1 mph - N/A   Scattered Clouds
9:48 PM 60.8 °F 60.8 °F 100% 29.78 in 10.0 mi SSE 8.1 mph - N/A   Scattered Clouds
9:58 PM 61.0 °F 61.0 °F 100% 29.79 in 10.0 mi SSE 8.1 mph - N/A   Scattered Clouds
10:03 PM 62.6 °F 62.6 °F 100% 29.78 in 10.0 mi SSE 8.1 mph - N/A   Mostly Cloudy
10:23 PM 62.6 °F 62.6 °F 100% 29.78 in 10.0 mi South 9.2 mph - N/A   Overcast
10:33 PM 64.4 °F 64.4 °F 100% 29.78 in 10.0 mi South 11.5 mph - N/A   Overcast
10:58 PM 64.0 °F 64.0 °F 100% 29.80 in 10.0 mi South 11.5 mph - N/A   Overcast
11:33 PM 64.4 °F 64.4 °F 100% 29.79 in 10.0 mi South 9.2 mph - N/A   Overcast
11:53 PM 64.4 °F 64.4 °F 100% 29.78 in 10.0 mi South 10.4 mph - N/A   Overcast
11:58 PM 64.2 °F 64.2 °F 100% 29.79 in 10.0 mi South 9.2 mph - N/A   Overcast